CZ-6A DEB, 61350

Orbit data source: Space-Track

CZ-6A DEB, 61350 is space debris in LEO originally from a launch on Tue, 06 Aug 2024 UTC launched from the Taiyaun Space Center, China (TSC). Debris objects in space refer to the collection of defunct objects orbiting the Earth. Examples of debris include non-operational satellites, rocket bodies, and fragments generated from explosions, collisions, or faulty payload assembly.

Loading next visibility...
Identifier
61350, 2024-140VP
Orbit
LEO
Country
Flag of CNCN / PRC
Related business
Manufacturer
SAST
Mission
Spacecraft
Bus & Motor
Unknown
Mass
Unknown
Launch date (UTC)
2024-08-06 (1 year ago)
Launch vehicle
Unknown
Launch site
Taiyaun Space Center, China (TSC)
Object type
Payload
Rocket body
Debris
Shape & HBR
Unknown shape, 0.1 m
Radar Cross Section
Small (<0.1 m²)

Expand to show TLE details & history
Last TLE update: 12 hours ago

TLE from 12 hours ago
0 CZ-6A DEB
1 61350U 24140VP  25354.81293962  .00003182  00000-0  12469-2 0  9993
2 61350  89.1233 301.4584 0082681  94.3371 266.7276 14.27380026 67473
Epoch: 2025-12-20T19:30Z
TLE epoch observation values (Epoch: 2025-12-20T19:30:37.983Z)
Latitude
-0.00002°
Longitude
-80.83422°
Altitude
807.444 km
Speed
7.448 km/s
True Right ascension
20h 05m 50s
True Declination
0° 00' 00"
Sunlit
Object was in daylight at epoch
Visualization orbit readout
Latitude
Unknown
Longitude
Unknown
Altitude
Unknown
Speed
Unknown
Apparent Right ascension
Unknown
Apparent Declination
Unknown
Sunlit
N/A
Visualization observer readout
Local Sidereal Time
06:56:39
Azimuth
Unknown
Elevation
Unknown
Doppler factor
Unknown
Orbital elements
Apogee altitude
856.77 km
Perigee altitude
738.113 km
Semi-major axis
7,175.578 km
Eccentricity
0.00827
Inclination
89.1233°
RAAN
301.4584°
Arg. of periapsis
94.3371°
True anomaly
265.78229°
Mean anomaly
266.7276°
Eccentric anomaly
266.25488°
Mean motion
3.57074 °/min
Orbital period
100.82 mins
BSTAR
0.0012469
Loading maneuver chart data...
Computing Atmospheric mass density...
Loading historical data...
Loading historical data...
Loading historical data...
Loading historical data...
Loading historical data...
Loading historical data...
Loading historical data...

Documentation

Showing up to 5 results
|